,,PA_Meas_PMT16A,,PR_Meas_QMR101_102,,RH_Meas_QMH101,,SR_Meas_QMS101,,TA_Meas_QMH101,,GenWind,,GenWind,
time,status,PA,status,PR,status,RH,status,SR,status,TA,status,DirAvg,status,SpdAvg,
2012-08-30, 00:00:04,VALID,919.057,VALID,0,VALID,97.1604,VALID,0,VALID,19.4118,VALID,97,VALID,0,
2012-08-30, 00:01:04,VALID,919.045,VALID,0,VALID,97.1909,VALID,0,VALID,19.5693,VALID,97,VALID,0,
2012-08-30, 00:02:04,VALID,919.049,VALID,0,VALID,97.2214,VALID,0,VALID,19.5498,VALID,97,VALID,0,
2012-08-30, 00:03:04,VALID,919.026,VALID,0,VALID,97.2367,VALID,0,VALID,19.6278,VALID,97,VALID,0,
2012-08-30, 00:04:04,VALID,919.017,VALID,0,VALID,97.2367,VALID,0,VALID,19.6263,VALID,97,VALID,0,
2012-08-30, 00:05:04,VALID,919.02,VALID,0,VALID,97.2367,VALID,0,VALID,19.6263,VALID,97,VALID,0,
2012-08-30, 00:06:04,VALID,919.01,VALID,0,VALID,97.2443,VALID,0,VALID,19.6668,VALID,97,VALID,0,
2012-08-30, 00:07:04,VALID,918.994,VALID,0,VALID,97.2519,VALID,0,VALID,19.6668,VALID,97,VALID,0,
2012-08-30, 00:08:04,VALID,918.973,VALID,0,VALID,97.2443,VALID,0,VALID,19.6278,VALID,97,VALID,0,
2012-08-30, 00:09:04,VALID,918.966,VALID,0,VALID,97.229,VALID,0,VALID,19.5888,VALID,97,VALID,0,
2012-08-30, 00:10:04,VALID,918.949,VALID,0,VALID,97.2062,VALID,0,VALID,19.5108,VALID,97,VALID,0,
2012-08-30, 00:11:04,VALID,918.957,VALID,0,VALID,97.2214,VALID,0,VALID,19.4327,VALID,98,VALID,0,
2012-08-30, 00:12:04,VALID,918.907,VALID,0,VALID,97.2062,VALID,0,VALID,19.3728,VALID,109,VALID,0,
2012-08-30, 00:13:04,VALID,918.904,VALID,0,VALID,97.1986,VALID,0,VALID,19.3338,VALID,109,VALID,0,
2012-08-30, 00:14:04,VALID,918.875,VALID,0,VALID,97.2062,VALID,0,VALID,19.2948,VALID,109,VALID,0,
2012-08-30, 00:15:04,VALID,918.833,VALID,0,VALID,97.1986,VALID,0,VALID,19.2168,VALID,109,VALID,0,
2012-08-30, 00:16:04,VALID,918.848,VALID,0,VALID,97.1986,VALID,0,VALID,19.1973,VALID,109,VALID,0,
2012-08-30, 00:17:04,VALID,918.835,VALID,0,VALID,97.2062,VALID,0,VALID,19.2377,VALID,143,VALID,0,
2012-08-30, 00:18:04,VALID,918.861,VALID,0,VALID,97.1909,VALID,0,VALID,19.1597,VALID,97,VALID,0,
2012-08-30, 00:19:04,VALID,918.857,VALID,0,VALID,97.1833,VALID,0.107441,VALID,19.1583,VALID,84,VALID,0,
2012-08-30, 00:20:04,VALID,918.826,VALID,0,VALID,97.2443,VALID,0,VALID,19.2948,VALID,85,VALID,0,
2012-08-30, 00:21:04,VALID,918.827,VALID,0,VALID,97.2519,VALID,0,VALID,19.2753,VALID,112,VALID,0,
2012-08-30, 00:22:04,VALID,918.842,VALID,0,VALID,97.2824,VALID,0,VALID,19.2377,VALID,112,VALID,0,
2012-08-30, 00:23:04,VALID,918.822,VALID,0,VALID,97.29,VALID,0,VALID,19.2558,VALID,112,VALID,0,
2012-08-30, 00:24:04,VALID,918.839,VALID,0,VALID,97.29,VALID,0.107441,VALID,19.2363,VALID,120,VALID,0,
2012-08-30, 00:25:04,VALID,918.869,VALID,0,VALID,97.29,VALID,0,VALID,19.2753,VALID,162,VALID,0,
2012-08-30, 00:26:04,VALID,918.866,VALID,0,VALID,97.2977,VALID,0,VALID,19.2753,VALID,162,VALID,0,
2012-08-30, 00:27:04,VALID,918.86,VALID,0,VALID,97.3053,VALID,0.107441,VALID,19.2363,VALID,162,VALID,0,
2012-08-30, 00:28:04,VALID,918.863,VALID,0,VALID,97.3053,VALID,0,VALID,19.2363,VALID,162,VALID,0,
2012-08-30, 00:29:04,VALID,918.843,VALID,0,VALID,97.3205,VALID,0,VALID,19.2948,VALID,169,VALID,0,
2012-08-30, 00:30:04,VALID,918.825,VALID,0,VALID,97.3358,VALID,0,VALID,19.2753,VALID,152,VALID,0,
2012-08-30, 00:31:04,VALID,918.813,VALID,0,VALID,97.3358,VALID,0,VALID,19.2558,VALID,126,VALID,0,
2012-08-30, 00:32:04,VALID,918.802,VALID,0,VALID,97.3281,VALID,0,VALID,19.2363,VALID,143,VALID,0,
2012-08-30, 00:33:04,VALID,918.784,VALID,0,VALID,97.3281,VALID,0,VALID,19.2558,VALID,142,VALID,0,
2012-08-30, 00:34:04,VALID,918.79,VALID,0,VALID,97.3358,VALID,0,VALID,19.2363,VALID,142,VALID,0,
2012-08-30, 00:35:04,VALID,918.825,VALID,0,VALID,97.3434,VALID,0,VALID,19.2363,VALID,142,VALID,0,
2012-08-30, 00:36:04,VALID,918.795,VALID,0,VALID,97.351,VALID,0,VALID,19.2558,VALID,142,VALID,0,
2012-08-30, 00:37:04,VALID,918.803,VALID,0,VALID,97.3586,VALID,0,VALID,19.2363,VALID,151,VALID,0,
2012-08-30, 00:38:04,VALID,918.796,VALID,0,VALID,97.3434,VALID,0,VALID,19.2767,VALID,157,VALID,0,
2012-08-30, 00:39:04,VALID,918.802,VALID,0,VALID,97.351,VALID,0,VALID,19.2363,VALID,142,VALID,0,
2012-08-30, 00:40:04,VALID,918.775,VALID,0,VALID,97.3586,VALID,0,VALID,19.2767,VALID,142,VALID,0,
2012-08-30, 00:41:04,VALID,918.767,VALID,0,VALID,97.3586,VALID,0,VALID,19.2948,VALID,142,VALID,0,
2012-08-30, 00:42:04,VALID,918.752,VALID,0,VALID,97.3739,VALID,0,VALID,19.2753,VALID,142,VALID,0,
2012-08-30, 00:43:04,VALID,918.763,VALID,0,VALID,97.3891,VALID,0,VALID,19.2753,VALID,142,VALID,0,
2012-08-30, 00:44:04,VALID,918.731,VALID,0,VALID,97.3968,VALID,0,VALID,19.2948,VALID,142,VALID,0,
2012-08-30, 00:45:04,VALID,918.723,VALID,0,VALID,97.3891,VALID,0,VALID,19.2363,VALID,142,VALID,0,
2012-08-30, 00:46:04,VALID,918.724,VALID,0,VALID,97.3815,VALID,0,VALID,19.2558,VALID,142,VALID,0,
2012-08-30, 00:47:04,VALID,918.699,VALID,0,VALID,97.412,VALID,0,VALID,19.2948,VALID,142,VALID,0,
2012-08-30, 00:48:04,VALID,918.672,VALID,0,VALID,97.3891,VALID,0,VALID,19.3143,VALID,142,VALID,0,
2012-08-30, 00:49:04,VALID,918.64,VALID,0,VALID,97.412,VALID,0.107441,VALID,19.3923,VALID,142,VALID,0,
2012-08-30, 00:50:04,VALID,918.662,VALID,0,VALID,97.412,VALID,0,VALID,19.5108,VALID,142,VALID,0,
2012-08-30, 00:51:04,VALID,918.625,VALID,0,VALID,97.4425,VALID,0,VALID,19.4898,VALID,142,VALID,0,
2012-08-30, 00:52:04,VALID,918.608,VALID,0,VALID,97.412,VALID,0,VALID,19.5888,VALID,142,VALID,0,
2012-08-30, 00:53:04,VALID,918.596,VALID,0,VALID,97.4273,VALID,0,VALID,19.5093,VALID,142,VALID,0,
2012-08-30, 00:54:04,VALID,918.601,VALID,0,VALID,97.4044,VALID,0,VALID,19.3338,VALID,142,VALID,0,
2012-08-30, 00:55:04,VALID,918.563,VALID,0,VALID,97.412,VALID,0,VALID,19.5483,VALID,142,VALID,0,
2012-08-30, 00:56:04,VALID,918.556,VALID,0,VALID,97.4196,VALID,0,VALID,19.6263,VALID,142,VALID,0,
2012-08-30, 00:57:04,VALID,918.518,VALID,0,VALID,97.4196,VALID,0,VALID,19.6458,VALID,142,VALID,0,
2012-08-30, 00:58:04,VALID,918.514,VALID,0,VALID,97.4273,VALID,0,VALID,19.6068,VALID,142,VALID,0,
2012-08-30, 00:59:04,VALID,918.484,VALID,0,VALID,97.4196,VALID,0,VALID,19.5873,VALID,142,VALID,0,
2012-08-30, 01:00:04,VALID,918.469,VALID,0,VALID,97.412,VALID,0,VALID,19.5873,VALID,142,VALID,0,
2012-08-30, 01:01:04,VALID,918.476,VALID,0,VALID,97.3815,VALID,0,VALID,19.6263,VALID,142,VALID,0,
2012-08-30, 01:02:04,VALID,918.473,VALID,0,VALID,97.3586,VALID,0,VALID,19.6848,VALID,142,VALID,0,
2012-08-30, 01:03:04,VALID,918.442,VALID,0,VALID,97.3205,VALID,0,VALID,19.7433,VALID,142,VALID,0,
2012-08-30, 01:04:04,VALID,918.456,VALID,0,VALID,97.3053,VALID,0,VALID,19.7433,VALID,142,VALID,0,
2012-08-30, 01:05:04,VALID,918.422,VALID,0,VALID,97.2672,VALID,0,VALID,19.8018,VALID,142,VALID,0,
2012-08-30, 01:06:04,VALID,918.426,VALID,0,VALID,97.2443,VALID,0,VALID,19.8603,VALID,131,VALID,0,
2012-08-30, 01:07:04,VALID,918.407,VALID,0,VALID,97.1833,VALID,0,VALID,19.9578,VALID,131,VALID,0,
2012-08-30, 01:08:04,VALID,918.369,VALID,0,VALID,97.1147,VALID,0,VALID,19.9953,VALID,131,VALID,0,
2012-08-30, 01:09:04,VALID,918.351,VALID,0,VALID,97.0003,VALID,0,VALID,20.0959,VALID,127,VALID,0,
2012-08-30, 01:10:04,VALID,918.334,VALID,0,VALID,96.8174,VALID,0,VALID,20.0553,VALID,120,VALID,0,
2012-08-30, 01:11:04,VALID,918.292,VALID,0,VALID,96.4286,VALID,0,VALID,20.0749,VALID,132,VALID,0,
2012-08-30, 01:12:04,VALID,918.294,VALID,0,VALID,96.3295,VALID,0,VALID,20.1154,VALID,113,VALID,0,
2012-08-30, 01:13:04,VALID,918.317,VALID,0,VALID,96.2075,VALID,0,VALID,20.1349,VALID,129,VALID,0,
2012-08-30, 01:14:04,VALID,918.295,VALID,0,VALID,96.1008,VALID,0,VALID,20.1739,VALID,130,VALID,0,
2012-08-30, 01:15:04,VALID,918.307,VALID,0,VALID,95.9026,VALID,0,VALID,20.1919,VALID,130,VALID,0,
2012-08-30, 01:16:04,VALID,918.281,VALID,0,VALID,95.6891,VALID,0,VALID,20.2114,VALID,130,VALID,0,
2012-08-30, 01:17:04,VALID,918.257,VALID,0,VALID,95.4985,VALID,0,VALID,20.2114,VALID,130,VALID,0,
2012-08-30, 01:18:04,VALID,918.261,VALID,0,VALID,95.1326,VALID,0,VALID,20.2309,VALID,130,VALID,0,
2012-08-30, 01:19:04,VALID,918.244,VALID,0,VALID,94.6371,VALID,0,VALID,20.2519,VALID,130,VALID,0,
2012-08-30, 01:20:04,VALID,918.246,VALID,0,VALID,93.8671,VALID,0,VALID,20.2324,VALID,130,VALID,0,
2012-08-30, 01:21:04,VALID,918.236,VALID,0,VALID,93.4326,VALID,0,VALID,20.2129,VALID,130,VALID,0,
2012-08-30, 01:22:04,VALID,918.242,VALID,0,VALID,93.0743,VALID,0,VALID,20.2324,VALID,130,VALID,0,
2012-08-30, 01:23:04,VALID,918.24,VALID,0,VALID,92.9447,VALID,0,VALID,20.2519,VALID,130,VALID,0,
2012-08-30, 01:24:04,VALID,918.267,VALID,0,VALID,92.6397,VALID,0,VALID,20.1919,VALID,130,VALID,0,
2012-08-30, 01:25:04,VALID,918.219,VALID,0,VALID,92.594,VALID,0,VALID,20.1739,VALID,112,VALID,0,
2012-08-30, 01:26:04,VALID,918.213,VALID,0,VALID,92.6397,VALID,0,VALID,20.1739,VALID,112,VALID,0,
2012-08-30, 01:27:04,VALID,918.221,VALID,0,VALID,92.716,VALID,0,VALID,20.1529,VALID,112,VALID,0,
2012-08-30, 01:28:04,VALID,918.208,VALID,0,VALID,92.5406,VALID,0,VALID,20.1739,VALID,112,VALID,0,
2012-08-30, 01:29:04,VALID,918.183,VALID,0,VALID,92.5788,VALID,0,VALID,20.1529,VALID,112,VALID,0,
2012-08-30, 01:30:04,VALID,918.196,VALID,0,VALID,92.6093,VALID,0,VALID,20.1334,VALID,112,VALID,0,
2012-08-30, 01:31:04,VALID,918.159,VALID,0,VALID,92.6321,VALID,0,VALID,20.1739,VALID,130,VALID,0,
2012-08-30, 01:32:04,VALID,918.157,VALID,0,VALID,92.4339,VALID,0,VALID,20.1934,VALID,122,VALID,0,
2012-08-30, 01:33:04,VALID,918.114,VALID,0,VALID,92.3729,VALID,0,VALID,20.1529,VALID,122,VALID,0,
2012-08-30, 01:34:04,VALID,918.113,VALID,0,VALID,92.2433,VALID,0,VALID,20.1739,VALID,124,VALID,0,
2012-08-30, 01:35:04,VALID,918.092,VALID,0,VALID,92.2052,VALID,0,VALID,20.1544,VALID,118,VALID,0,
2012-08-30, 01:36:04,VALID,918.076,VALID,0,VALID,92.1137,VALID,0,VALID,20.1934,VALID,128,VALID,0,
2012-08-30, 01:37:04,VALID,918.056,VALID,0,VALID,91.9231,VALID,0,VALID,20.2714,VALID,122,VALID,0,
2012-08-30, 01:38:04,VALID,918.02,VALID,0,VALID,91.7402,VALID,0,VALID,20.2909,VALID,132,VALID,0,
2012-08-30, 01:39:04,VALID,917.991,VALID,0,VALID,91.542,VALID,0,VALID,20.2909,VALID,123,VALID,0,
2012-08-30, 01:40:04,VALID,918.007,VALID,0,VALID,91.4581,VALID,0,VALID,20.2699,VALID,128,VALID,0,
2012-08-30, 01:41:04,VALID,917.987,VALID,0,VALID,91.3438,VALID,0,VALID,20.3105,VALID,135,VALID,0,
2012-08-30, 01:42:04,VALID,917.925,VALID,0,VALID,91.5953,VALID,0,VALID,20.369,VALID,134,VALID,0,
2012-08-30, 01:43:04,VALID,917.952,VALID,0,VALID,91.3743,VALID,0,VALID,20.3674,VALID,145,VALID,0,
2012-08-30, 01:44:04,VALID,917.926,VALID,0,VALID,91.2828,VALID,0,VALID,20.369,VALID,134,VALID,0,
2012-08-30, 01:45:04,VALID,917.931,VALID,0,VALID,91.359,VALID,0,VALID,20.3089,VALID,124,VALID,0,
2012-08-30, 01:46:04,VALID,917.929,VALID,0,VALID,91.4505,VALID,0,VALID,20.2909,VALID,143,VALID,0,
2012-08-30, 01:47:04,VALID,917.949,VALID,0,VALID,91.6716,VALID,0,VALID,20.2129,VALID,138,VALID,0,
2012-08-30, 01:48:04,VALID,917.952,VALID,0,VALID,91.885,VALID,0,VALID,20.1934,VALID,147,VALID,0,
2012-08-30, 01:49:04,VALID,917.961,VALID,0,VALID,92.1214,VALID,0,VALID,20.1334,VALID,139,VALID,0,
2012-08-30, 01:50:04,VALID,917.98,VALID,0,VALID,92.2586,VALID,0,VALID,20.1544,VALID,137,VALID,0,
2012-08-30, 01:51:04,VALID,917.924,VALID,0,VALID,92.1747,VALID,0.107441,VALID,20.1919,VALID,132,VALID,0,
2012-08-30, 01:52:04,VALID,917.951,VALID,0,VALID,92.007,VALID,0,VALID,20.2519,VALID,126,VALID,0,
2012-08-30, 01:53:04,VALID,917.938,VALID,0,VALID,91.7326,VALID,0,VALID,20.2699,VALID,126,VALID,0,
2012-08-30, 01:54:04,VALID,917.87,VALID,0,VALID,91.4352,VALID,0,VALID,20.2894,VALID,126,VALID,0,
2012-08-30, 01:55:04,VALID,917.889,VALID,0,VALID,91.2447,VALID,0,VALID,20.33,VALID,126,VALID,0,
2012-08-30, 01:56:04,VALID,917.883,VALID,0,VALID,91.2675,VALID,0,VALID,20.3284,VALID,126,VALID,0,
2012-08-30, 01:57:04,VALID,917.855,VALID,0,VALID,91.1303,VALID,0,VALID,20.3284,VALID,138,VALID,0,
2012-08-30, 01:58:04,VALID,917.858,VALID,0,VALID,91.0998,VALID,0,VALID,20.3284,VALID,136,VALID,0,
2012-08-30, 01:59:04,VALID,917.833,VALID,0,VALID,91.0236,VALID,0,VALID,20.33,VALID,137,VALID,0,
2012-08-30, 02:00:04,VALID,917.824,VALID,0,VALID,91.1532,VALID,0,VALID,20.3284,VALID,136,VALID,0,
2012-08-30, 02:01:04,VALID,917.803,VALID,0,VALID,91.0007,VALID,0,VALID,20.3479,VALID,137,VALID,0,
2012-08-30, 02:02:04,VALID,917.808,VALID,0,VALID,90.9321,VALID,0,VALID,20.33,VALID,137,VALID,0,
2012-08-30, 02:03:04,VALID,917.811,VALID,0,VALID,91.0083,VALID,0,VALID,20.3495,VALID,146,VALID,0,
2012-08-30, 02:04:04,VALID,917.806,VALID,0,VALID,90.7644,VALID,0.107441,VALID,20.3284,VALID,132,VALID,0,
2012-08-30, 02:05:04,VALID,917.818,VALID,0,VALID,90.5814,VALID,0.107441,VALID,20.2894,VALID,140,VALID,0,
2012-08-30, 02:06:04,VALID,917.836,VALID,0,VALID,90.8483,VALID,0,VALID,20.2309,VALID,140,VALID,0,
2012-08-30, 02:07:04,VALID,917.815,VALID,0,VALID,91.0083,VALID,0,VALID,20.1934,VALID,140,VALID,0,
2012-08-30, 02:08:04,VALID,917.82,VALID,0,VALID,91.2523,VALID,0,VALID,20.1334,VALID,157,VALID,0,
2012-08-30, 02:09:04,VALID,917.807,VALID,0,VALID,91.4429,VALID,0,VALID,20.0959,VALID,157,VALID,0,
2012-08-30, 02:10:04,VALID,917.84,VALID,0,VALID,91.8088,VALID,0.107441,VALID,20.0569,VALID,145,VALID,0,
2012-08-30, 02:11:04,VALID,917.786,VALID,0,VALID,92.0604,VALID,0,VALID,20.0163,VALID,123,VALID,0,
2012-08-30, 02:12:04,VALID,917.815,VALID,0,VALID,91.8927,VALID,0,VALID,20.0569,VALID,120,VALID,0,
2012-08-30, 02:13:04,VALID,917.795,VALID,0,VALID,91.6563,VALID,0,VALID,20.0358,VALID,128,VALID,0,
2012-08-30, 02:14:04,VALID,917.809,VALID,0,VALID,91.3743,VALID,0,VALID,20.1154,VALID,129,VALID,0,
2012-08-30, 02:15:04,VALID,917.774,VALID,0,VALID,90.9702,VALID,0,VALID,20.2129,VALID,129,VALID,0,
2012-08-30, 02:16:04,VALID,917.803,VALID,0,VALID,90.2917,VALID,0,VALID,20.2504,VALID,126,VALID,0,
2012-08-30, 02:17:04,VALID,917.775,VALID,0,VALID,89.9182,VALID,0,VALID,20.3089,VALID,135,VALID,0,
2012-08-30, 02:18:04,VALID,917.788,VALID,0,VALID,89.6209,VALID,0,VALID,20.369,VALID,128,VALID,0,
2012-08-30, 02:19:04,VALID,917.814,VALID,0,VALID,89.194,VALID,0,VALID,20.3885,VALID,123,VALID,0,
2012-08-30, 02:20:04,VALID,917.853,VALID,0,VALID,89.0339,VALID,0,VALID,20.3674,VALID,138,VALID,0,
2012-08-30, 02:21:04,VALID,917.851,VALID,0,VALID,89.0339,VALID,0,VALID,20.408,VALID,126,VALID,0,
2012-08-30, 02:22:04,VALID,917.856,VALID,0,VALID,89.0263,VALID,0,VALID,20.4275,VALID,127,VALID,0,
2012-08-30, 02:23:04,VALID,917.838,VALID,0,VALID,89.0491,VALID,0,VALID,20.408,VALID,127,VALID,0,
2012-08-30, 02:24:04,VALID,917.834,VALID,0,VALID,88.9881,VALID,0,VALID,20.3674,VALID,123,VALID,0,
2012-08-30, 02:25:04,VALID,917.815,VALID,0,VALID,88.9958,VALID,0,VALID,20.3495,VALID,122,VALID,0,
2012-08-30, 02:26:04,VALID,917.833,VALID,0,VALID,88.8128,VALID,0,VALID,20.3885,VALID,127,VALID,0,
2012-08-30, 02:27:04,VALID,917.824,VALID,0,VALID,88.7213,VALID,0,VALID,20.408,VALID,130,VALID,0,
2012-08-30, 02:28:04,VALID,917.83,VALID,0,VALID,88.7289,VALID,0,VALID,20.408,VALID,136,VALID,0,
2012-08-30, 02:29:04,VALID,917.791,VALID,0,VALID,88.7594,VALID,0,VALID,20.369,VALID,135,VALID,0,
2012-08-30, 02:30:04,VALID,917.812,VALID,0,VALID,88.7975,VALID,0,VALID,20.369,VALID,138,VALID,0,
2012-08-30, 02:31:04,VALID,917.749,VALID,0,VALID,88.546,VALID,0,VALID,20.3885,VALID,129,VALID,0,
2012-08-30, 02:32:04,VALID,917.796,VALID,0,VALID,88.2639,VALID,0,VALID,20.4259,VALID,124,VALID,0,
2012-08-30, 02:33:04,VALID,917.794,VALID,0,VALID,87.9818,VALID,0,VALID,20.4665,VALID,124,VALID,0,
2012-08-30, 02:34:04,VALID,917.823,VALID,0,VALID,87.8904,VALID,0,VALID,20.4454,VALID,125,VALID,0,
2012-08-30, 02:35:04,VALID,917.796,VALID,0,VALID,87.5397,VALID,0,VALID,20.5055,VALID,155,VALID,0.680859,
2012-08-30, 02:36:04,VALID,917.78,VALID,0,VALID,87.7074,VALID,0,VALID,20.504,VALID,139,VALID,0,
2012-08-30, 02:37:04,VALID,917.812,VALID,0,VALID,87.7608,VALID,0,VALID,20.5055,VALID,166,VALID,0.00429688,
2012-08-30, 02:38:04,VALID,917.801,VALID,0,VALID,87.9132,VALID,0,VALID,20.465,VALID,134,VALID,0,
2012-08-30, 02:39:04,VALID,917.803,VALID,0,VALID,88.1191,VALID,0,VALID,20.4454,VALID,147,VALID,0,
2012-08-30, 02:40:04,VALID,917.803,VALID,0,VALID,87.7836,VALID,0,VALID,20.4845,VALID,129,VALID,0,
2012-08-30, 02:41:04,VALID,917.796,VALID,0,VALID,87.5778,VALID,0,VALID,20.504,VALID,136,VALID,0,
2012-08-30, 02:42:04,VALID,917.766,VALID,0,VALID,87.1204,VALID,0,VALID,20.582,VALID,150,VALID,0,
2012-08-30, 02:43:04,VALID,917.774,VALID,0,VALID,87.0365,VALID,0,VALID,20.6226,VALID,141,VALID,0,
2012-08-30, 02:44:04,VALID,917.769,VALID,0,VALID,87.1204,VALID,0,VALID,20.621,VALID,141,VALID,0,
2012-08-30, 02:45:04,VALID,917.792,VALID,0,VALID,87.128,VALID,0,VALID,20.621,VALID,141,VALID,0,
2012-08-30, 02:46:04,VALID,917.797,VALID,0,VALID,87.2957,VALID,0,VALID,20.621,VALID,141,VALID,0,
2012-08-30, 02:47:04,VALID,917.801,VALID,0,VALID,87.4558,VALID,0,VALID,20.6031,VALID,114,VALID,0,
2012-08-30, 02:48:04,VALID,917.812,VALID,0,VALID,87.4025,VALID,0,VALID,20.582,VALID,153,VALID,0,
2012-08-30, 02:49:04,VALID,917.781,VALID,0,VALID,87.1433,VALID,0,VALID,20.6031,VALID,142,VALID,0,
2012-08-30, 02:50:04,VALID,917.831,VALID,0,VALID,86.9527,VALID,0,VALID,20.6616,VALID,130,VALID,0,
2012-08-30, 02:51:04,VALID,917.8,VALID,0,VALID,86.6859,VALID,0,VALID,20.7006,VALID,136,VALID,0,
2012-08-30, 02:52:04,VALID,917.823,VALID,0,VALID,86.6935,VALID,0,VALID,20.7217,VALID,149,VALID,0,
2012-08-30, 02:53:04,VALID,917.792,VALID,0,VALID,87.2652,VALID,0,VALID,20.6811,VALID,157,VALID,0,
2012-08-30, 02:54:04,VALID,917.796,VALID,0,VALID,87.8141,VALID,0,VALID,20.6241,VALID,157,VALID,0,
2012-08-30, 02:55:04,VALID,917.786,VALID,0,VALID,88.3325,VALID,0,VALID,20.5445,VALID,157,VALID,0,
2012-08-30, 02:56:04,VALID,917.778,VALID,0,VALID,88.8357,VALID,0,VALID,20.5071,VALID,157,VALID,0,
2012-08-30, 02:57:04,VALID,917.785,VALID,0,VALID,89.0872,VALID,0,VALID,20.429,VALID,159,VALID,0,
2012-08-30, 02:58:04,VALID,917.755,VALID,0,VALID,89.1863,VALID,0,VALID,20.4095,VALID,158,VALID,0,
2012-08-30, 02:59:04,VALID,917.765,VALID,0,VALID,89.3846,VALID,0,VALID,20.369,VALID,158,VALID,0,
2012-08-30, 03:00:04,VALID,917.742,VALID,0,VALID,89.1635,VALID,0,VALID,20.369,VALID,150,VALID,0,
2012-08-30, 03:01:04,VALID,917.743,VALID,0,VALID,89.0644,VALID,0,VALID,20.3885,VALID,144,VALID,0,
2012-08-30, 03:02:04,VALID,917.738,VALID,0,VALID,88.9195,VALID,0,VALID,20.3885,VALID,113,VALID,0,
2012-08-30, 03:03:04,VALID,917.684,VALID,0,VALID,88.0733,VALID,0,VALID,20.447,VALID,116,VALID,0,
2012-08-30, 03:04:04,VALID,917.684,VALID,0,VALID,88.0657,VALID,0,VALID,20.525,VALID,112,VALID,0,
2012-08-30, 03:05:04,VALID,917.656,VALID,0,VALID,87.6845,VALID,0,VALID,20.5235,VALID,121,VALID,0,
2012-08-30, 03:06:04,VALID,917.69,VALID,0,VALID,87.6845,VALID,0,VALID,20.5625,VALID,115,VALID,0,
2012-08-30, 03:07:04,VALID,917.671,VALID,0,VALID,87.2957,VALID,0,VALID,20.582,VALID,122,VALID,0,
2012-08-30, 03:08:04,VALID,917.671,VALID,0,VALID,87.593,VALID,0,VALID,20.6015,VALID,122,VALID,0,
2012-08-30, 03:09:04,VALID,917.673,VALID,0,VALID,87.8141,VALID,0,VALID,20.6031,VALID,122,VALID,0,
2012-08-30, 03:10:04,VALID,917.62,VALID,0,VALID,87.6159,VALID,0,VALID,20.5641,VALID,119,VALID,0,
2012-08-30, 03:11:04,VALID,917.652,VALID,0,VALID,87.6845,VALID,0.107441,VALID,20.5625,VALID,118,VALID,0,
2012-08-30, 03:12:04,VALID,917.636,VALID,0,VALID,87.7684,VALID,0,VALID,20.5625,VALID,118,VALID,0,
2012-08-30, 03:13:04,VALID,917.603,VALID,0,VALID,87.7226,VALID,0,VALID,20.543,VALID,118,VALID,0,
2012-08-30, 03:14:04,VALID,917.602,VALID,0,VALID,87.2424,VALID,0,VALID,20.582,VALID,118,VALID,0,
2012-08-30, 03:15:04,VALID,917.556,VALID,0,VALID,86.6249,VALID,0,VALID,20.6405,VALID,118,VALID,0,
2012-08-30, 03:16:04,VALID,917.566,VALID,0,VALID,86.6096,VALID,0,VALID,20.7006,VALID,118,VALID,0,
2012-08-30, 03:17:04,VALID,917.527,VALID,0,VALID,85.9388,VALID,0,VALID,20.699,VALID,118,VALID,0,
2012-08-30, 03:18:04,VALID,917.525,VALID,0,VALID,85.9616,VALID,0,VALID,20.7787,VALID,118,VALID,0,
2012-08-30, 03:19:04,VALID,917.524,VALID,0,VALID,86.0836,VALID,0,VALID,20.7787,VALID,118,VALID,0,
2012-08-30, 03:20:04,VALID,917.525,VALID,0,VALID,85.7024,VALID,0,VALID,20.7381,VALID,134,VALID,0,
2012-08-30, 03:21:04,VALID,917.5,VALID,0,VALID,85.8549,VALID,0,VALID,20.7576,VALID,126,VALID,0,
2012-08-30, 03:22:04,VALID,917.539,VALID,0,VALID,85.5195,VALID,0,VALID,20.7982,VALID,126,VALID,0,
2012-08-30, 03:23:05,VALID,917.531,VALID,0,VALID,85.954,VALID,0,VALID,20.7771,VALID,126,VALID,0,
2012-08-30, 03:24:05,VALID,917.564,VALID,0,VALID,86.076,VALID,0,VALID,20.7185,VALID,126,VALID,0,
2012-08-30, 03:25:05,VALID,917.546,VALID,0,VALID,86.3504,VALID,0,VALID,20.699,VALID,126,VALID,0,
2012-08-30, 03:26:05,VALID,917.525,VALID,0,VALID,86.5944,VALID,0,VALID,20.6616,VALID,126,VALID,0,
2012-08-30, 03:27:05,VALID,917.525,VALID,0,VALID,86.7773,VALID,0,VALID,20.6015,VALID,108,VALID,0,
2012-08-30, 03:28:05,VALID,917.507,VALID,0,VALID,86.9222,VALID,0,VALID,20.582,VALID,108,VALID,0,
2012-08-30, 03:29:05,VALID,917.498,VALID,0,VALID,87.0442,VALID,0,VALID,20.543,VALID,108,VALID,0,
2012-08-30, 03:30:05,VALID,917.529,VALID,0,VALID,87.3491,VALID,0,VALID,20.4845,VALID,108,VALID,0,
2012-08-30, 03:31:05,VALID,917.526,VALID,0,VALID,87.4863,VALID,0,VALID,20.465,VALID,108,VALID,0,
2012-08-30, 03:32:05,VALID,917.519,VALID,0,VALID,87.6769,VALID,0,VALID,20.4454,VALID,119,VALID,0,
2012-08-30, 03:33:05,VALID,917.534,VALID,0,VALID,87.5778,VALID,0,VALID,20.4259,VALID,126,VALID,0,
2012-08-30, 03:34:05,VALID,917.519,VALID,0,VALID,87.6007,VALID,0,VALID,20.4454,VALID,130,VALID,0,
2012-08-30, 03:35:05,VALID,917.53,VALID,0,VALID,87.4863,VALID,0,VALID,20.4454,VALID,135,VALID,0,
2012-08-30, 03:36:05,VALID,917.533,VALID,0,VALID,87.715,VALID,0,VALID,20.465,VALID,135,VALID,0,
2012-08-30, 03:37:05,VALID,917.59,VALID,0,VALID,88.4926,VALID,0,VALID,20.3854,VALID,128,VALID,0,
2012-08-30, 03:38:05,VALID,917.57,VALID,0,VALID,88.7823,VALID,0,VALID,20.3284,VALID,155,VALID,0,
2012-08-30, 03:39:05,VALID,917.583,VALID,0,VALID,89.4379,VALID,0,VALID,20.2504,VALID,151,VALID,0,
2012-08-30, 03:40:05,VALID,917.581,VALID,0,VALID,89.9334,VALID,0,VALID,20.1739,VALID,147,VALID,0,
2012-08-30, 03:41:05,VALID,917.539,VALID,0,VALID,90.3146,VALID,0,VALID,20.1139,VALID,170,VALID,0,
2012-08-30, 03:42:05,VALID,917.514,VALID,0,VALID,90.772,VALID,0,VALID,20.0569,VALID,170,VALID,0,
2012-08-30, 03:43:05,VALID,917.505,VALID,0,VALID,91.0693,VALID,0.107441,VALID,19.9578,VALID,167,VALID,0,
2012-08-30, 03:44:05,VALID,917.517,VALID,0,VALID,91.2142,VALID,0,VALID,19.9188,VALID,167,VALID,0,
2012-08-30, 03:45:05,VALID,917.484,VALID,0,VALID,91.0998,VALID,0,VALID,19.9593,VALID,158,VALID,0,
2012-08-30, 03:46:05,VALID,917.474,VALID,0,VALID,90.9321,VALID,0,VALID,19.9578,VALID,168,VALID,0,
2012-08-30, 03:47:05,VALID,917.479,VALID,0,VALID,90.772,VALID,0,VALID,19.9984,VALID,164,VALID,0,
2012-08-30, 03:48:05,VALID,917.481,VALID,0,VALID,90.6577,VALID,0,VALID,20.0163,VALID,145,VALID,0,
2012-08-30, 03:49:05,VALID,917.505,VALID,0,VALID,90.4213,VALID,0,VALID,20.0163,VALID,135,VALID,0.00273437,
2012-08-30, 03:50:05,VALID,917.486,VALID,0,VALID,90.0935,VALID,0,VALID,20.0749,VALID,129,VALID,0,
2012-08-30, 03:51:05,VALID,917.462,VALID,0,VALID,89.8801,VALID,0,VALID,20.1349,VALID,155,VALID,0,
2012-08-30, 03:52:05,VALID,917.455,VALID,0,VALID,89.6437,VALID,0,VALID,20.1544,VALID,138,VALID,0,
2012-08-30, 03:53:05,VALID,917.447,VALID,0,VALID,89.415,VALID,0,VALID,20.1739,VALID,137,VALID,0,
2012-08-30, 03:54:05,VALID,917.436,VALID,0,VALID,88.8738,VALID,0,VALID,20.2114,VALID,134,VALID,0,
2012-08-30, 03:55:05,VALID,917.429,VALID,0,VALID,88.7213,VALID,0,VALID,20.2714,VALID,158,VALID,0,
2012-08-30, 03:56:05,VALID,917.458,VALID,0,VALID,87.7989,VALID,0,VALID,20.3284,VALID,136,VALID,0,
2012-08-30, 03:57:05,VALID,917.431,VALID,0,VALID,87.9513,VALID,0,VALID,20.3869,VALID,88,VALID,0,
2012-08-30, 03:58:05,VALID,917.44,VALID,0,VALID,88.2258,VALID,0,VALID,20.3479,VALID,91,VALID,0,
2012-08-30, 03:59:05,VALID,917.429,VALID,0,VALID,87.7455,VALID,0,VALID,20.3089,VALID,121,VALID,0,